Location: La Silve
(44.2414°N, 5.8889°E)
Time: 04:53:01
(UTC+00:00)

Cosmos 1535 Rocket - Pass Details

Date: 01 December 2020
Orbit: 949 x 1003 km, 83.0° (Epoch: 24 January)

Event Time Altitude Azimuth Distance (km) Brightness Sun altitude
Rises 18:37:25 0° 351° (N) 3,634 7.6 -27.7°
Reaches altitude 10° 18:39:55 10° 351° (N) 2,683 6.8 -28.2°
Maximum altitude 18:46:03 85° 264° (W) 959 4.3 -29.3°
Drops below altitude 10° 18:52:10 10° 176° (S) 2,674 6.8 -30.4°
Sets 18:54:39 0° 176° (S) 3,620 7.5 -30.8°
